This is the latest recevied weather packets stored in our database for station/object XE3JAR. If no packets are shown the sender has not sent any weather packets the latest 10 day(s).
| Time | Temp. | Humidity | Pressure | Rain* | Wind** | Luminosity | Snow |
|---|---|---|---|---|---|---|---|
| 1777630013 | 27.22° C | 93% | 1011.5 hPa | - | - | - | - |
| 1777627563 | 27.22° C | 92% | 1011.2 hPa | - | - | - | - |
| 1777625911 | 27.22° C | 92% | 1011.5 hPa | - | - | - | - |
| 1777625320 | 27.22° C | 92% | 1011.8 hPa | - | - | - | - |
| 1777624997 | 27.22° C | 92% | 1011.8 hPa | - | - | - | - |
| 1777624088 | 27.22° C | 91% | 1011.8 hPa | - | - | - | - |
| 1777623802 | 27.22° C | 91% | 1011.8 hPa | - | - | - | - |
| 1777621065 | 27.22° C | 91% | 1011.8 hPa | - | - | - | - |
| 1777620127 | 27.22° C | 91% | 1012.2 hPa | - | - | - | - |
| 1777619217 | 27.22° C | 90% | 1012.5 hPa | - | - | - | - |
| 1777617191 | 27.78° C | 89% | 1012.5 hPa | - | - | - | - |
| 1777615675 | 27.78° C | 86% | 1012.5 hPa | - | - | - | - |
| 1777614166 | 27.78° C | 83% | 1012.9 hPa | - | - | - | - |
| 1777611926 | 28.89° C | 81% | 1012.9 hPa | - | - | - | - |
| 1777609802 | 28.89° C | 80% | 1012.9 hPa | - | - | - | - |
| 1777606767 | 28.89° C | 78% | 1012.2 hPa | - | - | - | - |
| 1777605871 | 30° C | 77% | 1011.8 hPa | - | - | - | - |
| 1777604348 | 30° C | 77% | 1011.8 hPa | - | - | - | - |
| 1777602521 | 30° C | 77% | 1011.5 hPa | - | - | - | - |
| 1777600371 | 31.11° C | 75% | 1010.8 hPa | - | - | - | - |
| 1777598545 | 32.22° C | 70% | 1010.5 hPa | - | - | - | - |
| 1777597636 | 32.78° C | 62% | 1010.5 hPa | - | - | - | - |
| 1777596416 | 32.78° C | 60% | 1010.2 hPa | - | - | - | - |
| 1777591144 | 37.22° C | 53% | 1009.5 hPa | - | - | - | - |
| 1777590096 | 37.22° C | 52% | 1009.5 hPa | - | - | - | - |
* Rain since midnight (hover to see other rain measurements)
** Current wind speed in m/s (hover to see current wind gust speed)